Simultaneous Nadir Overpasses (SNOs) Predictions

Prediction of SNOs between LANDSAT-8 and METOP-B Satellite Orbit:

Table of predicted SNOs for the next 14.0 days since TLE Epoch: 1/11/2015
Index Date (LANDSAT-8) Time (LANDSAT-8) Lat,Lon (LANDSAT-8) SZA (LANDSAT-8 ) Date (METOP-B) Time (METOP-B) Lat,Lon (METOP-B) SZA (METOP-B ) Distance(km) Time Diff (sec)
1 01/12/2015 12:22:00 81.04, 32.90 104.30 01/12/2015 12:21:14 81.04, 32.97 104.29 1.18 46
2 01/12/2015 13:11:26 -81.06,-159.12 75.66 01/12/2015 13:11:53 -81.07,-158.97 75.63 2.72 27
3 01/15/2015 07:56:13 81.04, 99.42 103.81 01/15/2015 07:55:37 81.04, 99.25 103.77 3.12 36
4 01/15/2015 08:45:39 -81.07, -92.58 76.16 01/15/2015 08:46:16 -81.06, -92.69 76.15 1.86 37
5 01/18/2015 03:30:27 81.04, 165.76 103.23 01/18/2015 03:30:00 81.04, 165.86 103.24 1.93 27
6 01/18/2015 04:19:53 -81.06, -26.23 76.73 01/18/2015 04:20:39 -81.07, -26.08 76.69 2.88 46
7 01/20/2015 23:04:40 81.04,-127.73 102.63 01/20/2015 23:04:23 81.05,-127.57 102.65 2.92 17
8 01/20/2015 23:54:06 -81.07, 40.28 77.33 01/20/2015 23:55:03 -81.06, 40.11 77.32 2.99 57
9 01/23/2015 18:38:51 81.06, -61.05 102.01 01/23/2015 18:38:45 81.05, -61.05 102.01 0.42 6




NCC Satellite Simultaneous Nadir Overpasses (SNOs) Prediction Service
